Wind_Speed
30 30 32 35 35 35 35 35 33 32 31 31 30 29 27 28 30 30 29 28 28 29 29 28 29 28 28 28 28 27 27 27 28 28 28 28 29 29 30 30 31 31 31
29 29 32 33 34 34 35 35 34 33 32 31 30 27 28 28 26 26 27 27 27 28 28 28 28 29 30 29 29 30 30 30 31 31 31 30 31 31 31 32 32 32 32
29 30 32 32 32 34 34 35 34 34 33 32 31 28 25 23 23 23 24 24 26 26 28 29 29 29 30 31 31 32 32 32 32 32 33 33 33 32 32 33 34 34 34
28 30 31 31 31 33 34 34 34 34 32 31 29 28 25 24 23 23 22 24 25 24 25 26 28 28 30 31 32 32 32 32 33 34 35 35 34 34 34 34 35 35 36
26 27 29 31 33 33 34 34 34 34 31 30 29 28 27 24 23 21 21 22 23 24 23 24 26 29 31 32 32 32 33 33 34 34 35 35 35 36 37 36 36 37 38
24 26 28 29 31 32 33 33 35 35 31 30 30 29 28 25 23 22 21 22 23 23 23 24 25 28 31 32 33 34 34 35 36 35 35 36 36 37 38 38 38 39 39
22 24 27 29 30 31 31 32 34 34 32 30 30 29 28 26 24 22 22 22 22 22 23 24 26 28 29 31 33 34 35 36 35 35 36 36 37 39 39 39 39 40 40
21 23 24 26 28 29 29 31 32 32 31 30 28 28 28 26 24 23 21 21 22 23 23 25 26 27 29 30 32 34 35 35 34 35 35 36 37 36 37 38 38 39 40
20 21 22 24 25 26 26 28 29 29 29 29 28 28 27 25 23 23 22 22 23 24 25 25 26 27 28 29 31 33 34 34 34 34 34 35 35 36 37 37 38 39 40
20 20 21 22 23 24 23 25 26 27 27 27 27 27 26 24 24 24 24 23 24 24 25 26 26 26 27 27 28 30 32 33 33 33 32 33 33 34 36 37 38 40 42
19 20 21 21 21 21 22 23 24 25 25 26 26 26 25 24 24 25 25 24 24 24 25 25 25 25 26 27 28 29 30 30 31 31 31 32 33 34 35 37 38 39 41
18 18 19 20 21 21 22 23 24 25 25 25 25 25 25 25 25 25 25 24 24 24 24 24 24 25 26 26 27 27 28 28 28 29 30 31 33 34 35 36 38 39 41
18 18 18 19 21 23 23 24 25 25 25 25 26 26 26 25 25 25 25 25 25 24 24 24 25 25 25 26 26 26 27 27 28 29 30 32 33 34 35 37 38 39 40
17 18 18 19 20 21 23 23 24 25 26 26 26 26 27 27 27 26 26 26 26 25 25 25 26 26 26 27 27 27 28 27 28 30 31 32 33 34 35 37 38 39 40
17 17 18 19 20 21 22 22 22 23 25 26 26 26 26 27 27 27 26 27 27 27 27 27 27 27 27 27 27 28 28 28 29 30 31 32 33 34 35 36 36 37 38
18 18 19 20 21 21 22 22 22 23 24 24 25 26 26 26 25 25 26 26 26 27 27 27 27 27 27 27 27 27 27 27 28 29 31 31 32 33 33 34 34 35 35
19 20 20 20 21 22 22 22 23 23 23 23 24 24 25 26 25 25 24 25 25 25 25 25 25 25 25 25 26 26 27 27 27 28 29 30 31 31 31 32 32 32 32
20 20 21 21 21 21 21 21 21 21 22 23 24 23 24 24 24 24 25 24 24 24 25 25 24 25 25 24 24 24 25 26 26 27 28 28 28 28 29 29 29 29 29
19 19 20 19 18 18 18 19 20 20 20 21 21 22 22 22 22 23 24 23 23 23 23 23 23 23 23 22 22 23 24 24 25 26 26 26 26 26 27 27 26 26 26
18 18 17 17 17 16 16 16 17 17 18 18 19 19 20 20 20 20 20 21 21 21 20 20 20 20 20 21 21 22 22 23 24 24 24 24 24 24 24 24 24 23 23
18 17 16 15 16 15 15 14 14 15 15 16 16 16 17 17 17 18 19 19 19 19 19 19 19 19 19 20 20 21 21 22 22 22 22 21 21 21 21 21 21 21 20
17 15 15 14 14 14 14 14 14 14 14 14 14 15 15 15 16 17 17 17 17 18 18 17 17 18 18 18 19 19 19 19 19 19 19 19 19 19 19 19 19 18 18
13 13 12 12 12 12 12 12 13 13 13 13 13 14 14 14 14 15 15 15 15 15 15 16 16 16 16 16 17 17 17 17 17 17 17 17 18 18 17 17 17 16 16
11 10 10 10 9 9 10 10 10 11 12 12 12 12 12 12 12 12 13 13 13 13 14 14 14 14 14 15 15 15 15 15 15 16 16 16 16 16 16 16 16 16 16
9 9 8 7 7 8 8 8 9 10 10 10 10 11 11 11 11 11 11 11 11 11 11 11 12 12 13 13 13 13 14 14 14 14 14 15 15 15 15 15 15 14 14
8 7 8 7 7 7 8 7 7 8 8 9 9 9 9 9 9 9 9 9 9 9 10 10 11 11 12 11 11 12 12 13 13 13 13 13 13 13 13 13 13 13 13
Wind_Direction
247 245 244 242 241 240 242 243 246 247 250 253 253 251 248 245 246 246 241 242 242 244 245 244 247 248 250 251 253 255 257 258 260 262 265 268 270 271 272 274 276 279 279
249 245 242 240 240 240 241 243 245 246 249 251 252 253 250 249 251 247 242 243 248 248 247 246 247 249 250 250 254 256 257 259 261 262 265 268 270 271 272 273 275 277 278
251 246 245 243 240 239 241 243 245 247 248 250 252 255 253 250 253 252 246 247 249 254 253 250 250 252 251 253 255 257 258 259 260 262 264 267 269 270 271 273 274 275 277
251 248 245 244 242 242 244 243 245 247 249 250 249 251 252 251 253 255 252 254 253 257 257 254 253 254 256 257 257 258 259 260 261 264 266 269 270 270 272 273 274 275 276
254 252 247 246 244 242 243 242 246 247 247 247 248 250 248 251 252 258 259 260 259 262 265 261 258 258 258 258 258 259 259 261 264 266 269 271 271 272 273 274 274 275 276
252 250 249 247 245 243 244 244 248 250 250 248 247 249 251 252 257 260 262 263 266 266 269 265 263 263 259 258 258 259 262 262 265 266 268 271 272 272 273 274 275 276 277
254 250 248 248 248 249 248 248 249 251 252 251 251 252 254 255 261 261 264 265 267 269 270 269 267 265 262 260 261 262 263 265 266 267 268 270 272 274 273 274 275 276 278
258 253 249 249 249 251 251 251 250 252 253 255 255 256 257 260 260 264 269 268 271 272 273 272 269 268 267 264 262 262 263 264 267 268 270 271 272 272 272 274 276 277 278
261 256 253 250 248 250 251 251 249 250 253 254 255 257 259 260 263 264 268 270 272 274 274 272 271 269 267 265 264 263 263 264 265 268 270 270 270 271 273 276 278 280 282
261 258 256 255 252 253 252 249 249 249 252 255 258 260 263 264 265 265 268 271 273 273 273 271 269 268 266 264 264 265 267 267 268 267 268 269 270 273 276 279 281 283 285
261 258 257 256 254 252 251 250 251 251 252 254 256 259 262 263 264 266 268 270 271 270 269 268 267 266 267 269 270 271 271 270 270 269 269 271 274 277 280 283 284 286 287
265 263 258 256 255 254 254 252 254 255 255 257 257 259 261 263 263 264 267 267 267 267 268 269 269 270 271 273 274 274 274 272 272 273 275 277 280 281 282 284 286 288 289
270 266 265 262 259 257 256 254 255 257 258 259 259 259 261 261 261 262 264 266 266 266 268 270 271 271 272 274 275 275 276 276 276 278 279 281 282 283 285 286 288 289 290
276 268 266 265 262 259 257 255 254 256 257 257 258 259 261 260 260 262 263 263 264 265 267 269 270 271 272 273 275 277 279 279 279 280 282 283 285 287 288 289 290 291 292
282 273 269 267 264 262 262 260 257 257 256 256 257 257 258 257 259 261 262 262 263 265 267 268 269 270 272 274 276 278 278 279 280 282 284 286 287 289 291 292 293 294 295
283 277 272 270 267 264 262 263 262 261 260 258 258 259 260 259 259 261 262 261 260 262 265 268 269 271 272 275 277 278 280 280 281 285 286 288 290 293 294 295 296 297 298
285 279 276 273 270 266 266 265 264 262 261 261 261 259 260 260 261 262 262 261 262 264 267 269 271 272 275 278 278 278 279 281 284 287 289 291 293 295 296 297 298 299 300
287 283 279 279 275 269 267 265 265 264 260 259 260 260 260 261 261 262 263 263 263 266 268 270 272 274 275 276 276 278 279 283 286 289 291 293 294 295 297 298 299 300 301
288 284 283 280 275 270 265 264 264 263 262 260 259 259 260 261 261 262 262 260 262 265 267 269 272 273 274 274 275 278 281 285 288 290 293 294 295 297 298 299 301 302 303
291 287 284 279 274 270 266 264 263 262 263 262 260 258 257 257 259 259 257 257 260 264 267 268 270 271 272 274 276 279 283 287 290 292 293 295 296 298 300 301 302 304 305
293 288 282 277 273 270 267 266 263 264 265 265 262 261 260 258 259 260 259 261 265 267 266 265 268 270 272 276 279 283 286 289 291 293 295 296 298 300 302 303 304 306 307
293 289 282 275 272 267 266 267 268 266 265 264 262 261 260 261 264 263 261 264 266 267 265 266 268 269 273 277 281 285 288 290 291 293 296 298 300 302 303 305 307 308 310
296 293 288 282 276 271 269 268 266 267 266 263 261 260 260 260 261 260 262 266 268 269 270 270 270 270 274 278 283 286 289 290 292 294 296 299 302 304 306 308 309 311 313
303 301 293 289 283 278 275 271 267 266 264 260 260 260 260 259 260 263 264 265 267 269 270 271 270 271 275 279 283 286 289 291 293 296 298 301 303 305 307 308 310 312 315
312 309 303 295 291 288 283 280 276 271 269 267 264 262 262 262 261 261 261 264 267 271 272 272 272 275 278 281 284 288 290 292 295 296 298 301 304 306 308 309 310 312 314
319 313 307 304 298 294 292 287 280 275 270 266 264 262 261 261 262 263 265 267 268 270 272 273 276 279 281 284 287 290 292 295 297 300 302 304 306 309 310 311 313 315 317
Height
5786 5788 5790 5792 5794 5796 5799 5801 5803 5806 5808 5809 5810 5811 5813 5816 5818 5819 5819 5824 5828 5829 5830 5834 5838 5840 5842 5844 5846 5847 5849 5850 5851 5852 5853 5854 5854 5854 5854 5854 5853 5853 5852
5780 5783 5783 5784 5787 5790 5792 5795 5798 5801 5803 5804 5805 5805 5808 5811 5812 5813 5815 5818 5821 5823 5824 5827 5831 5834 5836 5838 5839 5841 5842 5844 5845 5846 5847 5847 5848 5848 5847 5848 5847 5846 5845
5776 5777 5777 5778 5782 5784 5786 5788 5792 5794 5796 5798 5799 5800 5803 5805 5807 5808 5810 5812 5815 5817 5819 5821 5825 5827 5829 5831 5833 5834 5835 5836 5838 5839 5840 5840 5841 5841 5841 5840 5840 5839 5838
5770 5771 5772 5773 5775 5777 5780 5783 5786 5789 5791 5792 5794 5796 5798 5799 5802 5804 5806 5808 5810 5812 5813 5815 5818 5820 5823 5825 5826 5827 5828 5830 5831 5832 5833 5833 5833 5833 5833 5833 5832 5832 5831
5765 5766 5766 5768 5769 5772 5775 5777 5780 5783 5785 5787 5789 5791 5793 5795 5797 5799 5802 5804 5806 5808 5809 5810 5812 5814 5816 5818 5820 5821 5822 5823 5824 5825 5826 5826 5826 5826 5826 5826 5825 5824 5823
5759 5760 5761 5763 5764 5767 5770 5772 5774 5777 5779 5782 5784 5785 5787 5789 5791 5794 5797 5799 5801 5803 5804 5805 5806 5808 5809 5811 5813 5814 5815 5816 5817 5817 5818 5818 5818 5818 5818 5817 5817 5816 5815
5755 5756 5757 5758 5760 5762 5764 5766 5769 5772 5774 5776 5778 5780 5782 5784 5786 5789 5792 5794 5795 5797 5798 5799 5800 5801 5802 5804 5805 5806 5807 5808 5809 5809 5810 5810 5811 5810 5810 5809 5808 5807 5806
5751 5751 5752 5754 5755 5757 5759 5761 5764 5766 5769 5771 5773 5774 5778 5780 5781 5785 5787 5788 5790 5791 5792 5793 5794 5795 5795 5796 5798 5799 5800 5801 5801 5802 5802 5803 5802 5802 5801 5800 5800 5798 5798
5747 5747 5748 5749 5750 5752 5754 5756 5759 5761 5764 5766 5768 5770 5773 5774 5777 5779 5781 5783 5784 5785 5786 5787 5787 5788 5788 5789 5790 5791 5792 5793 5794 5794 5794 5795 5794 5794 5793 5792 5791 5790 5788
5743 5744 5744 5745 5746 5747 5749 5751 5754 5756 5759 5761 5763 5765 5767 5769 5772 5774 5776 5778 5778 5779 5780 5780 5781 5781 5781 5782 5783 5784 5785 5785 5786 5786 5786 5786 5786 5786 5785 5784 5782 5781 5779
5740 5741 5741 5741 5742 5743 5745 5747 5749 5751 5753 5755 5758 5760 5762 5764 5766 5768 5770 5772 5773 5773 5774 5774 5775 5776 5776 5777 5777 5778 5778 5778 5779 5779 5779 5779 5778 5778 5777 5776 5774 5772 5770
5737 5737 5737 5738 5739 5740 5741 5743 5745 5747 5748 5750 5752 5754 5756 5759 5761 5762 5764 5765 5766 5767 5768 5769 5769 5770 5770 5771 5771 5771 5771 5772 5772 5772 5772 5772 5771 5770 5769 5767 5765 5763 5761
5733 5733 5733 5734 5735 5736 5737 5738 5740 5741 5743 5745 5747 5749 5751 5753 5754 5756 5758 5759 5760 5761 5762 5763 5763 5764 5764 5765 5765 5765 5765 5765 5765 5765 5765 5764 5763 5762 5760 5759 5756 5754 5751
5730 5729 5729 5730 5730 5731 5732 5733 5734 5736 5738 5739 5741 5742 5744 5746 5748 5750 5751 5753 5754 5755 5756 5757 5757 5758 5758 5759 5759 5759 5759 5758 5758 5758 5757 5757 5756 5754 5752 5750 5747 5745 5742
5726 5725 5725 5725 5726 5726 5727 5728 5729 5730 5732 5734 5735 5736 5738 5740 5741 5743 5744 5746 5747 5749 5750 5750 5751 5751 5752 5752 5752 5752 5752 5752 5751 5751 5750 5749 5748 5746 5744 5741 5738 5736 5732
5722 5722 5721 5721 5721 5722 5722 5723 5724 5725 5726 5727 5729 5730 5731 5733 5735 5736 5738 5739 5741 5742 5743 5744 5744 5745 5745 5745 5745 5745 5745 5745 5744 5744 5743 5741 5740 5738 5735 5733 5730 5727 5724
5718 5717 5716 5716 5716 5716 5717 5717 5718 5719 5720 5721 5722 5724 5725 5727 5728 5730 5731 5733 5734 5735 5736 5737 5737 5738 5738 5738 5739 5739 5739 5738 5737 5737 5736 5734 5732 5730 5728 5725 5722 5719 5716
5713 5712 5711 5711 5710 5710 5711 5711 5712 5713 5714 5716 5717 5718 5719 5721 5722 5723 5725 5726 5728 5729 5730 5730 5731 5732 5732 5732 5732 5732 5732 5732 5731 5730 5729 5727 5725 5723 5720 5718 5715 5712 5709
5708 5707 5706 5705 5705 5705 5706 5706 5707 5708 5709 5710 5711 5712 5713 5715 5716 5717 5719 5720 5722 5723 5724 5724 5725 5725 5726 5726 5726 5726 5726 5726 5725 5723 5722 5720 5718 5716 5714 5711 5709 5706 5703
5703 5702 5701 5701 5700 5701 5701 5702 5702 5703 5704 5705 5706 5707 5708 5709 5711 5712 5713 5715 5716 5717 5718 5719 5719 5720 5720 5721 5721 5721 5720 5720 5719 5717 5716 5714 5712 5710 5707 5705 5703 5700 5698
5699 5697 5697 5696 5696 5696 5697 5697 5698 5699 5699 5700 5701 5702 5703 5705 5706 5707 5709 5710 5711 5712 5713 5713 5714 5715 5715 5715 5715 5715 5715 5714 5713 5711 5710 5708 5706 5704 5702 5700 5698 5695 5693
5695 5693 5693 5692 5692 5692 5693 5693 5694 5695 5696 5697 5697 5698 5699 5700 5701 5703 5704 5705 5706 5707 5707 5708 5709 5709 5710 5710 5710 5710 5709 5709 5708 5706 5705 5703 5701 5700 5698 5695 5693 5691 5688
5691 5690 5690 5689 5689 5689 5689 5690 5690 5691 5692 5692 5693 5694 5695 5696 5697 5698 5699 5700 5701 5702 5703 5703 5704 5705 5705 5705 5705 5705 5705 5704 5703 5702 5700 5699 5697 5695 5693 5691 5689 5687 5685
5689 5688 5687 5686 5686 5686 5686 5686 5687 5687 5688 5689 5690 5691 5691 5692 5693 5695 5696 5697 5697 5698 5699 5699 5700 5701 5701 5701 5701 5701 5700 5699 5698 5697 5696 5695 5693 5691 5689 5687 5685 5683 5681
5687 5686 5685 5684 5684 5684 5684 5684 5684 5684 5685 5686 5686 5687 5688 5689 5690 5691 5692 5693 5694 5694 5695 5696 5696 5697 5697 5697 5697 5697 5696 5695 5695 5693 5692 5691 5689 5688 5686 5684 5682 5680 5678
5686 5685 5684 5683 5682 5682 5682 5682 5682 5682 5682 5683 5684 5684 5686 5687 5688 5689 5689 5690 5691 5691 5692 5693 5693 5694 5694 5694 5693 5693 5693 5692 5691 5690 5689 5688 5686 5685 5683 5681 5679 5677 5676